FW1087 Weather Reports


time (UTC)temp
F
wind
direction
speed
knots
gust
knots
rain 1hr
in
rain 24hr
in
rain mn
in
humidity
%
barometer
mb
20260504181105 50 189 0.9 3.5 0.00 0.04 0.04 83 1007.9
20260504174106 48 184 1.7 7.0 0.00 0.04 0.04 85 1007.9
20260504172607 47 232 2.6 7.8 0.00 0.04 0.04 88 1008.1
20260504151103 45 241 2.6 7.0 0.03 0.04 0.03 91 1008.2
20260504141107 46 209 1.7 8.7 0.00 0.01 0.00 85 1007.7
20260504081100 36 152 0.0 2.6 0.00 0.01 0.00 81 1008.5
20260504044056 29 32 0.9 2.6 0.00 0.01 0.00 87 1009.0
20260504041056 29 32 1.7 2.6 0.00 0.01 0.00 86 1009.0
20260504034053 30 31 0.9 2.6 0.00 0.01 0.01 85 1009.0
20260504031054 30 31 0.9 2.6 0.00 0.01 0.01 84 1009.2
20260504024052 31 17 0.9 2.6 0.00 0.01 0.01 83 1009.1
20260504021051 31 16 0.9 2.6 0.00 0.01 0.01 82 1009.2
20260504014052 32 16 0.9 2.6 0.00 0.01 0.01 82 1009.0
20260504011051 33 16 0.9 2.6 0.00 0.01 0.01 80 1009.0
20260504004052 35 10 0.9 2.6 0.00 0.02 0.01 77 1008.9
20260504001049 38 338 0.0 0.9 0.00 0.03 0.01 71 1008.7
20260503234050 41 338 0.0 2.6 0.00 0.03 0.01 66 1008.5
20260503231050 43 328 0.0 3.5 0.00 0.03 0.01 62 1008.5
20260503224100 43 287 1.7 7.8 0.00 0.03 0.01 62 1008.5
20260503224049 43 316 0.9 7.0 0.00 0.03 0.01 64 1008.5
20260503221059 43 287 1.7 7.8 0.00 0.03 0.01 62 1008.5
20260503214046 43 345 0.9 3.5 0.00 0.04 0.01 65 1008.5
20260503211046 42 330 0.9 6.1 0.00 0.04 0.01 66 1008.6
20260503204046 42 317 1.7 7.8 0.00 0.04 0.01 65 1008.5
20260503201046 42 297 2.6 9.6 0.00 0.04 0.01 63 1008.4
20260503194044 42 308 2.6 6.1 0.00 0.04 0.01 67 1008.7
20260503191046 40 64 1.7 7.0 0.00 0.04 0.01 74 1008.9
20260503184042 42 331 1.7 8.7 0.00 0.04 0.01 69 1008.9